User: anonymous   Login
Location: Hastringsfeld
(50.9620°N, 10.4787°E)
Time: 17:59:29
(UTC+00:00)
Language:

ATLAS 3B R/B - Orbit

View from above orbital plane
View from above orbital plane
View from above satellite
View from above satellite

Ground track
Ground track

The orbit data is extracted from the following two-line orbital elements,

1 28538U 05004B   24041.79372789 0.00000070  00000-0  10835-3 0    08
2 28538  63.8267 291.3149 0200273 303.0489  56.9510 13.43238047    01
Epoch (UTC): 10 February 2024 19:02:58
Eccentricity: 0.0200273
inclination: 63.8267°
perigee height: 947 km
apogee height: 1247 km
right ascension of ascending node: 291.3149°
argument of perigee: 303.0489°
revolutions per day: 13.43238047
mean anomaly at epoch: 56.9510°
orbit number at epoch: 0

The dashed part of the orbit path shows where the satellite is in the earth's shadow,  

DLR